Ireland West Airport Knock, Ireland

7:42 PM IST on May 25, 2017 (GMT +0100)
Connaught

Weather History for EIKN - January, 2013

Change the Weather History Date:

Friday, January 18, 2013

  Actual Average Record
Temperature  
Mean Temperature 34 °F -  
Max Temperature 36 °F - - ()
Min Temperature 32 °F - - ()
Degree Days  
Heating Degree Days 31    
Moisture  
Dew Point 34 °F    
Average Humidity 99    
Maximum Humidity 100    
Minimum Humidity 93    
Precipitation  
Precipitation 0.16 in - - ()
Sea Level Pressure  
Sea Level Pressure 29.22 in    
Wind  
Wind Speed 10 mph ()    
Max Wind Speed 27 mph    
Max Gust Speed -    
Visibility 0.8 miles    
Events Fog , Rain , Snow    
T = Trace of Precipitation, MM = Missing Value Source: Averaged Metar Reports

Daily Weather History Graph

Daily Weather History Graph

Search for Another Location

Airport or City:

Trip Planner

Search our weather history database for the weather conditions in past years. The results will help you decide how hot, cold, wet, or windy it might be!

Date:

Astronomy

Jan. 18, 2013 Rise Set
Actual Time 8:41 AM GMT 4:50 PM GMT
Civil Twilight 8:01 AM GMT 5:31 PM GMT
Nautical Twilight 7:16 AM GMT 6:15 PM GMT
Astronomical Twilight 6:34 AM GMT 6:57 PM GMT
Moon 11:00 AM GMT (1/18) 12:36 AM GMT (1/18)
Length of Visible Light 9h 29m
Length of Day
8h 08m
Waxing Crescent, 45% of the Moon is Illuminated
Jan 18
Waxing Crescent
Jan 18
First Quarter
Jan 27
Full
Feb 3
Last Quarter
Feb 10
New

Hourly Weather History & Observations

Time (GMT) Temp. Windchill Dew Point Humidity Pressure Visibility Wind Dir Wind Speed Gust Speed Precip Events Conditions
12:00 AM 45 °F - 44 °F 96% 29.33 in - SE 26.8 mph - -  
6:00 AM 36 °F - 36 °F 99% 29.31 in 7 mi ESE 15.7 mph - - Rain Light Rain
8:00 AM 35.6 °F 25.5 °F 33.8 °F 93% 29.24 in 4.3 mi SE 17.3 mph - N/A Rain Light Rain
8:30 AM 33.8 °F 24.3 °F 33.8 °F 100% 29.24 in 1.6 mi ESE 13.8 mph - N/A Rain Light Rain
9:00 AM 33.8 °F 25.3 °F 33.8 °F 100% 29.24 in 0.2 mi SE 11.5 mph - N/A Fog , Rain Light Rain
9:30 AM 33.8 °F 25.8 °F 33.8 °F 100% 29.24 in 0.4 mi ESE 10.4 mph - N/A Fog , Rain Light Rain
10:00 AM 33.8 °F 25.8 °F 33.8 °F 100% 29.24 in 0.4 mi ESE 10.4 mph - N/A Fog , Rain Light Rain
10:30 AM 32.0 °F 24.2 °F 32.0 °F 100% 29.24 in 0.7 mi ESE 9.2 mph - N/A Rain , Snow Light Rain
11:00 AM 32.0 °F 23.6 °F 32.0 °F 100% 29.24 in 0.4 mi ESE 10.4 mph - N/A Fog , Rain , Snow Light Rain
11:30 AM 32.0 °F 25.6 °F 32.0 °F 100% 29.24 in 0.7 mi ESE 6.9 mph - N/A Rain , Snow Light Rain
12:00 PM 33 °F - 33 °F 99% 29.28 in 1 mi ESE 8.9 mph - - Rain Light Drizzle
12:00 PM 33.8 °F 26.4 °F 33.8 °F 100% 29.24 in 0.7 mi ESE 9.2 mph - N/A   Light Drizzle
12:30 PM 33.8 °F 27.7 °F 32.0 °F 93% 29.21 in 0.5 mi ESE 6.9 mph - N/A Fog , Rain Light Rain
1:00 PM 33.8 °F 27.0 °F 33.8 °F 100% 29.21 in 0.5 mi ESE 8.1 mph - N/A Fog , Rain Light Rain
1:30 PM 33.8 °F 27.0 °F 33.8 °F 100% 29.21 in 0.4 mi ESE 8.1 mph - N/A Fog , Rain Light Rain
2:00 PM 33.8 °F 27.0 °F 33.8 °F 100% 29.18 in 0.1 mi ESE 8.1 mph - N/A Fog Fog
2:30 PM 33.8 °F 28.6 °F 33.8 °F 100% 29.18 in 0.1 mi ESE 5.8 mph - N/A Fog Fog
3:00 PM 32.0 °F 27.5 °F 32.0 °F 100% 29.18 in 0.2 mi East 4.6 mph - N/A Fog , Snow Light Snow
3:30 PM 32.0 °F - 32.0 °F 100% 29.18 in 0.1 mi ESE 2.3 mph - N/A Fog Fog
4:00 PM 33.8 °F 30.8 °F 33.8 °F 100% 29.18 in 0.2 mi ESE 3.5 mph - N/A Fog , Rain , Snow Light Rain
4:30 PM 33.8 °F 29.6 °F 33.8 °F 100% 29.18 in 0.1 mi SE 4.6 mph - N/A Fog , Rain , Snow Light Rain
5:00 PM 33.8 °F - 33.8 °F 100% 29.18 in 0.1 mi ESE 2.3 mph - N/A Fog , Rain Light Rain
5:30 PM 33.8 °F - 33.8 °F 100% 29.18 in 0.2 mi SSE 2.3 mph - N/A Fog , Rain Light Rain
6:00 PM 33 °F - 33 °F 100% 29.21 in 0 mi SE 4.5 mph - - Fog Heavy Fog
6:00 PM 33.8 °F 30.8 °F 33.8 °F 100% 29.18 in 0.2 mi SE 3.5 mph - N/A Fog Fog
6:30 PM 33.8 °F 30.8 °F 33.8 °F 100% 29.18 in 0.2 mi SE 3.5 mph - N/A Fog Fog